SCP
0 0 0 0 0 0 0 0 0 0 0 0 0 0 0 0 0 0 0 0 0 0 0 0 0 0 0 0 0 0 0 0
0 0 0 0 0 0 0 0 0 0 0 0 0 0 0 0 0 0 0 0 0 0 0 0 0 0 0 0 0 0 0 0
0 0 0 0 0 0 0 0 0 0 0 0 0 0 0 0 0 0 0 0 0 0 0 0 0 0 0 0 0 0 0 0
0 0 0 0 0 0 0 0 0 0 0 0 0 0 0 0 0 0 0 0 0 0 0 0 0 1 1 1 1 1 1 0
0 0 0 0 0 0 0 0 0 0 0 0 0 0 0 0 0 0 0 0 1 1 1 1 1 1 1 1 1 1 1 1
0 0 0 0 0 0 0 0 0 0 0 0 0 0 0 0 0 0 0 0 0 1 2 1 1 1 1 1 1 1 1 1
0 0 0 0 0 0 0 0 0 0 0 0 0 0 0 0 0 0 0 0 0 0 0 2 1 1 1 1 0 1 1 1
0 0 0 0 0 0 0 0 0 0 0 0 0 0 0 0 0 0 0 0 0 0 0 0 0 2 1 1 1 0 1 1
0 0 0 0 0 0 0 0 0 0 0 0 0 0 0 0 0 0 0 0 0 0 0 0 0 1 2 1 1 1 1 1
0 0 0 0 0 0 0 0 0 0 0 0 0 0 0 0 0 0 0 0 0 0 0 0 0 0 1 2 2 1 1 1
0 0 0 0 0 0 0 0 0 0 0 0 0 0 0 0 0 0 0 0 0 0 0 0 0 0 0 1 2 2 2 2
0 0 0 0 0 0 0 0 0 0 0 0 0 0 0 0 0 0 0 0 0 0 0 0 0 0 0 0 0 2 2 2
0 0 0 0 0 0 0 0 0 0 0 0 0 0 0 0 0 0 0 0 0 0 0 0 0 0 0 0 0 1 2 2
0 0 0 0 0 0 0 0 0 0 0 -0 -0 0 0 0 0 0 0 0 0 0 0 0 0 0 0 0 0 0 1 1
0 0 0 0 0 0 0 0 0 -0 -0 -0 -0 0 0 0 0 0 0 0 0 0 0 0 0 0 0 0 0 0 1 2
0 0 0 0 0 0 0 0 0 -0 -0 -0 -0 -0 0 0 0 0 0 0 0 0 0 0 0 0 0 0 0 0 0 0
0 0 0 0 0 0 0 0 0 -0 -0 -0 -0 0 0 0 0 0 0 0 0 0 0 0 0 0 0 0 0 0 0 0
0 0 0 0 0 0 0 0 -0 -0 -0 -0 -0 -0 0 0 0 0 0 0 0 0 0 0 0 0 0 0 0 0 0 0
0 0 0 0 0 0 0 -0 -0 -0 -0 -0 -0 -0 0 0 0 0 0 0 0 0 0 0 0 0 0 0 0 0 0 0
0 0 0 0 0 0 0 0 -0 -0 -0 -0 -0 0 -0 -0 -0 0 0 0 0 0 0 0 0 0 0 0 0 0 0 0
Wind_Speed_500mb
12 13 14 18 21 23 27 29 32 35 34 31 30 28 29 32 37 39 43 47 47 47 46 45 42 41 40 39 38 38 37 33
11 14 17 20 23 25 28 30 31 33 35 35 32 30 30 32 33 39 46 47 48 51 51 51 49 48 46 45 42 41 41 38
16 17 20 23 26 28 31 31 31 33 33 35 32 33 33 33 32 35 41 45 50 51 53 56 56 55 55 51 49 48 44 42
22 23 25 27 30 34 38 39 39 39 39 42 40 37 35 36 36 38 39 40 45 51 55 59 61 64 64 59 57 53 50 46
25 29 33 36 40 45 48 49 47 44 44 44 46 47 50 53 53 50 46 44 41 45 48 57 63 70 70 66 55 49 49 46
30 33 36 40 44 47 51 52 51 51 51 50 51 53 52 53 54 56 56 52 47 39 47 50 59 60 64 75 63 57 57 51
32 34 36 37 38 40 42 44 46 50 49 49 51 56 59 58 55 56 57 58 53 48 47 47 52 62 67 64 67 66 54 56
33 35 36 36 37 38 39 39 43 45 47 47 49 54 58 60 62 58 57 57 57 57 58 57 48 58 63 70 67 78 70 63
30 31 34 36 38 37 37 39 43 45 44 47 49 51 53 57 62 64 59 53 58 62 63 64 60 52 69 66 74 74 80 78
28 31 34 38 38 39 41 41 45 42 47 50 45 47 51 57 62 58 52 54 59 58 61 61 63 57 55 72 75 77 79 86
24 30 34 37 36 38 38 41 43 48 51 51 49 57 61 61 63 67 65 62 60 54 55 49 57 62 64 50 69 78 83 81
22 26 32 35 34 39 38 43 48 47 48 46 53 58 57 54 59 63 67 68 69 61 52 57 50 55 55 65 55 67 78 86
22 26 32 36 38 43 46 52 49 52 50 52 62 52 60 64 59 54 53 51 55 54 59 62 63 43 50 72 77 62 65 80
22 26 31 34 38 35 39 44 44 47 54 58 53 55 56 52 50 56 51 51 52 54 54 59 59 58 46 43 55 75 84 91
21 25 27 31 37 34 42 44 51 57 63 65 63 53 53 49 47 52 53 48 48 51 51 52 58 55 64 43 22 45 47 66
19 24 25 27 34 40 43 50 56 57 61 62 58 54 53 54 53 51 52 50 53 54 51 47 53 59 52 74 75 72 43 48
17 21 22 27 29 41 42 44 47 52 60 62 67 65 57 63 60 61 55 51 49 49 51 52 55 59 62 59 74 79 72 78
15 18 18 24 26 36 39 42 45 54 59 67 73 74 68 68 70 66 59 54 51 51 48 53 55 57 64 65 71 67 62 58
14 17 17 23 26 33 39 39 44 48 55 65 72 78 76 73 72 69 62 57 51 50 51 54 53 58 63 69 69 84 80 82
14 15 19 23 26 29 38 38 41 44 49 56 66 69 71 66 69 64 59 57 53 49 45 47 46 46 50 55 62 71 82 85
Wind_Direction_500mb
13 7 359 352 349 346 338 333 325 319 317 319 320 314 295 284 280 276 273 268 262 260 260 260 260 260 262 263 265 267 268 268
356 354 354 352 343 345 337 331 322 318 314 308 305 303 306 296 288 282 277 267 266 265 259 258 259 260 260 263 262 261 261 262
333 341 346 344 334 333 325 319 313 309 307 304 303 297 292 291 292 289 283 280 276 267 264 259 258 260 261 260 262 258 257 257
334 333 333 332 329 327 321 321 313 310 307 294 297 293 293 290 290 293 296 287 284 274 270 265 259 258 259 259 262 265 263 260
334 335 335 332 332 328 326 323 321 316 306 307 298 293 286 285 285 283 282 284 288 283 277 268 262 261 258 258 258 262 263 259
337 338 334 331 328 324 322 321 320 316 316 312 307 298 293 288 282 278 276 272 271 277 284 273 266 264 260 258 249 258 256 259
339 338 333 328 324 320 319 319 318 317 317 315 309 306 301 296 289 281 274 271 268 256 259 277 278 262 261 256 248 245 247 244
342 337 334 333 332 330 328 327 324 324 323 322 318 312 309 305 299 290 279 272 267 263 256 248 254 272 262 257 256 243 245 247
344 340 335 338 340 341 340 338 334 332 329 317 313 313 312 303 298 298 296 284 271 264 261 257 251 257 263 258 255 253 242 240
349 345 343 346 348 349 347 341 338 331 320 319 318 305 295 295 296 292 291 283 280 274 269 263 255 246 264 269 256 251 251 239
359 349 344 349 352 346 347 338 336 330 329 324 315 305 302 297 292 292 285 280 278 271 269 270 269 255 251 254 263 256 249 250
2 350 347 356 349 342 345 341 338 340 328 330 311 310 313 308 302 299 295 288 280 275 271 260 261 267 260 262 251 258 258 248
4 352 356 354 347 355 345 342 345 332 336 314 311 312 305 308 317 316 315 304 296 292 278 273 257 256 284 261 248 240 247 251
6 355 360 349 346 352 338 348 340 337 332 338 335 322 322 318 321 322 316 310 302 297 293 293 274 257 274 276 273 260 249 247
6 355 4 342 346 339 346 353 354 350 349 348 341 335 331 334 312 306 301 294 294 293 290 284 286 277 244 262 267 246 260 256
3 3 2 349 347 340 354 358 357 351 347 347 349 345 346 335 328 318 308 303 287 279 275 279 278 279 274 243 244 270 287 250
3 12 360 344 356 340 350 356 357 353 352 352 356 355 351 342 337 333 326 317 305 295 290 275 266 267 267 263 253 251 259 262
17 13 0 346 355 345 346 353 354 357 354 358 359 357 355 343 342 340 334 326 315 306 293 284 273 269 265 262 256 258 254 262
11 5 358 351 358 352 342 351 355 357 358 1 2 359 355 350 346 343 339 331 321 311 300 290 281 275 265 261 258 249 256 259
346 1 351 357 1 358 340 351 356 354 359 5 7 3 358 351 349 348 344 337 330 321 312 303 290 292 278 258 262 254 252 254
Wind_Speed_850mb
12 13 14 18 21 23 27 29 32 35 34 31 30 28 29 32 37 39 43 47 47 47 46 45 42 41 40 39 38 38 37 33
11 14 17 20 23 25 28 30 31 33 35 35 32 30 30 32 33 39 46 47 48 51 51 51 49 48 46 45 42 41 41 38
16 17 20 23 26 28 31 31 31 33 33 35 32 33 33 33 32 35 41 45 50 51 53 56 56 55 55 51 49 48 44 42
22 23 25 27 30 34 38 39 39 39 39 42 40 37 35 36 36 38 39 40 45 51 55 59 61 64 64 59 57 53 50 46
25 29 33 36 40 45 48 49 47 44 44 44 46 47 50 53 53 50 46 44 41 45 48 57 63 70 70 66 55 49 49 46
30 33 36 40 44 47 51 52 51 51 51 50 51 53 52 53 54 56 56 52 47 39 47 50 59 60 64 75 63 57 57 51
32 34 36 37 38 40 42 44 46 50 49 49 51 56 59 58 55 56 57 58 53 48 47 47 52 62 67 64 67 66 54 56
33 35 36 36 37 38 39 39 43 45 47 47 49 54 58 60 62 58 57 57 57 57 58 57 48 58 63 70 67 78 70 63
30 31 34 36 38 37 37 39 43 45 44 47 49 51 53 57 62 64 59 53 58 62 63 64 60 52 69 66 74 74 80 78
28 31 34 38 38 39 41 41 45 42 47 50 45 47 51 57 62 58 52 54 59 58 61 61 63 57 55 72 75 77 79 86
24 30 34 37 36 38 38 41 43 48 51 51 49 57 61 61 63 67 65 62 60 54 55 49 57 62 64 50 69 78 83 81
22 26 32 35 34 39 38 43 48 47 48 46 53 58 57 54 59 63 67 68 69 61 52 57 50 55 55 65 55 67 78 86
22 26 32 36 38 43 46 52 49 52 50 52 62 52 60 64 59 54 53 51 55 54 59 62 63 43 50 72 77 62 65 80
22 26 31 34 38 35 39 44 44 47 54 58 53 55 56 52 50 56 51 51 52 54 54 59 59 58 46 43 55 75 84 91
21 25 27 31 37 34 42 44 51 57 63 65 63 53 53 49 47 52 53 48 48 51 51 52 58 55 64 43 22 45 47 66
19 24 25 27 34 40 43 50 56 57 61 62 58 54 53 54 53 51 52 50 53 54 51 47 53 59 52 74 75 72 43 48
17 21 22 27 29 41 42 44 47 52 60 62 67 65 57 63 60 61 55 51 49 49 51 52 55 59 62 59 74 79 72 78
15 18 18 24 26 36 39 42 45 54 59 67 73 74 68 68 70 66 59 54 51 51 48 53 55 57 64 65 71 67 62 58
14 17 17 23 26 33 39 39 44 48 55 65 72 78 76 73 72 69 62 57 51 50 51 54 53 58 63 69 69 84 80 82
14 15 19 23 26 29 38 38 41 44 49 56 66 69 71 66 69 64 59 57 53 49 45 47 46 46 50 55 62 71 82 85
Wind_Direction_850mb
13 7 359 352 349 346 338 333 325 319 317 319 320 314 295 284 280 276 273 268 262 260 260 260 260 260 262 263 265 267 268 268
356 354 354 352 343 345 337 331 322 318 314 308 305 303 306 296 288 282 277 267 266 265 259 258 259 260 260 263 262 261 261 262
333 341 346 344 334 333 325 319 313 309 307 304 303 297 292 291 292 289 283 280 276 267 264 259 258 260 261 260 262 258 257 257
334 333 333 332 329 327 321 321 313 310 307 294 297 293 293 290 290 293 296 287 284 274 270 265 259 258 259 259 262 265 263 260
334 335 335 332 332 328 326 323 321 316 306 307 298 293 286 285 285 283 282 284 288 283 277 268 262 261 258 258 258 262 263 259
337 338 334 331 328 324 322 321 320 316 316 312 307 298 293 288 282 278 276 272 271 277 284 273 266 264 260 258 249 258 256 259
339 338 333 328 324 320 319 319 318 317 317 315 309 306 301 296 289 281 274 271 268 256 259 277 278 262 261 256 248 245 247 244
342 337 334 333 332 330 328 327 324 324 323 322 318 312 309 305 299 290 279 272 267 263 256 248 254 272 262 257 256 243 245 247
344 340 335 338 340 341 340 338 334 332 329 317 313 313 312 303 298 298 296 284 271 264 261 257 251 257 263 258 255 253 242 240
349 345 343 346 348 349 347 341 338 331 320 319 318 305 295 295 296 292 291 283 280 274 269 263 255 246 264 269 256 251 251 239
359 349 344 349 352 346 347 338 336 330 329 324 315 305 302 297 292 292 285 280 278 271 269 270 269 255 251 254 263 256 249 250
2 350 347 356 349 342 345 341 338 340 328 330 311 310 313 308 302 299 295 288 280 275 271 260 261 267 260 262 251 258 258 248
4 352 356 354 347 355 345 342 345 332 336 314 311 312 305 308 317 316 315 304 296 292 278 273 257 256 284 261 248 240 247 251
6 355 360 349 346 352 338 348 340 337 332 338 335 322 322 318 321 322 316 310 302 297 293 293 274 257 274 276 273 260 249 247
6 355 4 342 346 339 346 353 354 350 349 348 341 335 331 334 312 306 301 294 294 293 290 284 286 277 244 262 267 246 260 256
3 3 2 349 347 340 354 358 357 351 347 347 349 345 346 335 328 318 308 303 287 279 275 279 278 279 274 243 244 270 287 250
3 12 360 344 356 340 350 356 357 353 352 352 356 355 351 342 337 333 326 317 305 295 290 275 266 267 267 263 253 251 259 262
17 13 0 346 355 345 346 353 354 357 354 358 359 357 355 343 342 340 334 326 315 306 293 284 273 269 265 262 256 258 254 262
11 5 358 351 358 352 342 351 355 357 358 1 2 359 355 350 346 343 339 331 321 311 300 290 281 275 265 261 258 249 256 259
346 1 351 357 1 358 340 351 356 354 359 5 7 3 358 351 349 348 344 337 330 321 312 303 290 292 278 258 262 254 252 254